Date,TemperatureHighF,TemperatureAvgF,TemperatureLowF,DewpointHighF,DewpointAvgF,DewpointLowF,HumidityHigh,HumidityAvg,HumidityLow,PressureMaxIn,PressureMinIn,WindSpeedMaxMPH,WindSpeedAvgMPH,GustSpeedMaxMPH,PrecipitationSumIn
2013-1-1,82.0,73.8,69.1,55.7,52.8,49.6,60,48,39,30.41,30.41,14,4,14,0.00
2013-1-2,80.4,71.8,65.7,73.7,61.6,53.6,89,72,47,30.41,30.41,10,2,10,0.00
2013-1-3,92.8,75.1,69.3,80.1,69.7,65.9,91,84,58,30.41,30.41,12,2,12,0.00
2013-1-4,83.3,75.5,72.3,69.2,65.6,60.9,85,72,49,30.41,30.41,8,2,8,0.00
2013-1-5,88.7,74.0,69.1,64.7,62.1,58.3,79,67,39,30.41,30.41,10,3,10,0.00
2013-1-6,89.1,76.5,71.1,66.4,63.3,60.1,77,64,41,30.41,30.41,15,4,15,0.08
2013-1-7,85.8,73.8,70.2,64.1,62.0,55.0,76,67,38,30.41,30.41,9,2,9,0.09
2013-1-8,87.3,77.6,73.6,66.1,64.1,62.3,71,64,47,30.41,30.41,13,6,13,0.03
2013-1-9,87.3,78.1,75.2,75.7,66.2,61.8,93,68,45,30.41,30.41,14,7,14,0.00
2013-1-10,82.4,77.0,73.8,62.8,59.7,56.4,65,56,43,30.41,30.41,14,7,14,0.00
2013-1-11,86.9,77.3,69.4,66.1,60.4,58.4,89,56,41,30.41,30.41,12,6,12,0.03
2013-1-12,90.5,80.5,73.8,62.7,59.7,57.4,65,51,34,30.41,30.41,12,5,12,0.00
2013-1-13,86.0,86.0,86.0,57.4,57.4,57.4,38,38,38,30.41,30.41,4,4,4,0.00
2013-1-14,86.0,86.0,86.0,57.4,57.4,57.4,38,38,38,30.41,30.41,4,4,4,0.00
2013-1-15,86.0,86.0,86.0,57.4,57.4,57.4,38,38,38,30.41,30.41,4,3,4,0.00
2013-1-16,86.0,86.0,86.0,57.4,57.4,57.4,38,38,38,30.41,30.41,4,4,4,0.00
2013-1-17,86.0,86.0,86.0,57.4,57.4,57.4,38,38,38,30.41,30.41,4,4,4,0.00
2013-1-18,86.0,86.0,86.0,57.4,57.4,57.4,38,38,38,30.41,30.41,4,4,4,0.00
2013-1-19,86.0,86.0,86.0,57.4,57.4,57.4,38,38,38,30.41,30.41,4,4,4,0.00
2013-1-20,86.0,86.0,86.0,57.4,57.4,57.4,38,38,38,30.41,30.41,4,3,4,0.00
2013-1-21,86.0,86.0,86.0,57.4,57.4,57.4,38,38,38,30.41,30.41,4,3,4,0.00
2013-1-22,86.0,86.0,86.0,57.4,57.4,57.4,38,38,38,30.41,30.41,4,4,4,0.00
2013-1-23,86.0,86.0,86.0,57.4,57.4,57.4,38,38,38,30.41,30.41,4,4,4,0.00
2013-1-24,86.0,79.1,65.3,57.4,51.7,42.1,49,39,28,30.41,30.41,10,4,10,0.00
2013-1-25,86.9,68.9,61.9,69.0,50.8,43.2,95,56,28,30.41,30.41,10,2,10,0.00
2013-1-26,84.7,69.9,61.2,69.3,59.4,50.4,96,73,34,30.41,30.41,10,3,10,0.00
2013-1-27,87.1,74.6,69.3,56.1,54.1,50.4,59,50,31,30.41,30.41,14,4,14,0.00
2013-1-28,88.9,76.4,72.0,58.1,55.6,52.3,56,49,31,30.41,30.41,14,6,14,0.00
2013-1-29,88.9,76.7,72.7,61.7,58.5,55.2,65,54,37,30.41,30.41,14,6,14,0.00
2013-1-30,80.8,74.9,72.3,75.9,64.0,55.1,94,71,45,30.41,30.41,16,6,16,0.00
2013-1-31,74.3,69.6,63.0,72.1,64.7,51.2,94,85,63,30.41,30.41,10,4,10,0.00
2013-2-1,77.5,65.8,55.9,63.9,55.0,46.2,79,68,54,30.41,30.41,14,6,14,0.00
2013-2-2,81.7,67.9,60.1,58.4,47.1,31.8,80,50,29,30.41,30.41,9,3,9,0.00
2013-2-3,78.4,66.8,59.7,48.1,41.5,33.0,63,42,22,30.41,30.41,9,3,9,0.00
2013-2-4,77.2,65.1,55.8,46.2,40.0,28.8,53,41,28,30.41,30.41,8,2,9,0.00
2013-2-5,77.0,68.5,59.7,54.9,50.6,45.8,62,53,43,30.41,30.41,9,2,9,0.00
2013-2-6,80.8,72.4,64.9,58.1,55.6,53.0,69,56,43,30.41,30.41,9,3,9,0.00
2013-2-7,87.8,75.8,70.5,59.8,56.2,54.3,62,51,36,30.41,30.41,10,4,10,0.00
2013-2-8,87.4,75.4,70.2,70.1,61.1,57.0,94,62,43,30.41,30.41,14,3,14,0.20
2013-2-9,84.4,72.9,65.7,61.0,55.5,51.7,74,55,42,30.41,30.41,12,4,12,0.00
2013-2-10,79.2,73.9,71.1,57.9,53.8,50.8,56,50,42,30.41,30.41,15,7,15,0.00
2013-2-11,85.1,75.2,70.7,57.9,56.1,53.8,59,52,36,30.41,30.41,15,6,15,0.00
2013-2-12,87.3,75.9,69.4,74.1,60.1,56.5,74,59,39,30.41,30.41,14,4,14,0.00
2013-2-13,88.0,76.7,70.7,65.1,62.5,60.2,75,63,43,30.41,30.41,15,5,15,0.00
2013-2-14,84.2,74.7,65.3,65.7,62.3,54.7,84,67,41,30.41,30.41,18,5,18,0.89
2013-2-15,75.2,68.7,65.5,63.1,60.6,57.9,82,76,64,30.41,30.41,8,3,8,1.11
2013-2-16,78.6,67.6,57.4,60.7,49.4,32.5,76,56,23,30.41,30.41,18,6,18,0.03
2013-2-17,70.9,55.2,48.6,38.2,13.0,-12.8,50,23,5,30.41,30.41,18,7,18,0.00
2013-2-18,72.5,62.1,51.3,47.8,37.2,26.8,49,40,35,30.41,30.41,14,6,14,0.00
2013-2-19,81.7,71.5,67.5,72.0,58.0,47.0,86,63,47,30.41,30.41,14,5,14,0.00
2013-2-20,85.1,72.9,67.5,61.2,58.2,51.4,75,61,45,30.41,30.41,11,3,11,0.00
2013-2-21,84.2,75.3,69.4,60.6,58.6,56.9,67,57,44,30.41,30.41,10,4,10,0.00
2013-2-22,86.4,77.3,73.0,64.5,62.6,59.1,72,61,45,30.41,30.41,15,7,15,0.00
2013-2-23,88.7,78.3,73.9,64.9,63.0,61.2,70,60,44,30.41,30.41,14,6,14,0.00
2013-2-24,87.8,77.7,71.6,76.9,64.8,62.4,78,65,46,30.41,30.41,13,2,13,0.00
2013-2-25,90.5,76.3,71.2,65.7,62.6,59.0,76,64,39,30.41,30.41,13,3,13,0.00
2013-2-26,84.2,78.8,51.3,67.0,63.9,28.9,71,61,42,30.41,30.41,18,6,18,0.00
2013-2-27,78.4,72.8,68.4,68.6,62.9,57.2,86,72,49,30.41,30.41,10,3,10,0.19
2013-2-28,73.2,67.6,62.8,60.1,47.2,39.4,75,50,32,30.41,30.41,12,4,12,0.00
2013-3-1,67.6,64.9,60.8,49.8,43.9,37.9,59,47,40,30.41,30.41,9,4,9,0.00
2013-3-2,69.1,60.5,56.7,40.3,33.4,27.9,47,37,25,30.41,30.41,19,6,19,0.00
2013-3-3,65.7,57.7,53.1,37.9,34.0,28.5,54,42,30,30.41,30.41,15,5,15,0.00
2013-3-4,69.6,57.2,47.3,36.1,30.2,23.0,51,37,21,30.41,30.41,12,4,12,0.00
2013-3-5,76.5,65.0,54.5,48.1,43.6,32.4,58,47,33,30.41,30.41,11,3,11,0.00
2013-3-6,80.4,67.5,55.6,56.1,42.0,13.5,65,43,13,30.41,30.41,16,6,16,0.00
2013-3-7,71.6,60.3,50.5,64.9,40.0,27.8,85,49,28,30.41,30.41,9,3,9,0.00
2013-3-8,76.1,65.8,57.0,46.5,43.3,36.1,65,46,30,30.41,30.41,9,3,10,0.00
2013-3-9,75.2,67.0,58.5,70.0,54.6,41.3,88,66,40,30.41,30.41,12,4,12,0.00
2013-3-10,80.8,72.2,67.1,63.2,55.1,45.5,79,58,33,30.41,30.41,13,6,13,0.00
2013-3-11,81.7,73.3,69.3,70.6,55.3,49.4,86,55,38,30.41,30.41,15,6,15,0.00
2013-3-12,80.8,74.6,70.7,61.6,57.9,55.1,64,56,47,30.41,30.41,15,6,15,0.00
2013-3-13,78.1,69.5,60.4,58.7,49.2,38.9,66,50,30,30.41,30.41,14,6,14,0.00
2013-4-28,101.5,83.5,77.0,64.6,52.5,46.6,49,35,17,30.41,30.29,13,7,13,0.00
2013-4-29,85.6,78.6,75.6,64.4,59.5,54.0,66,52,42,30.36,30.22,15,6,15,0.00
2013-4-30,82.6,77.2,73.6,65.3,61.7,59.6,66,59,50,30.31,30.20,10,3,10,0.30
2013-5-1,85.5,76.3,70.9,69.1,64.6,61.5,82,68,48,30.32,30.19,13,2,13,3.27
2013-5-2,82.0,74.4,68.4,68.8,65.6,61.3,88,75,53,30.23,30.03,20,4,20,3.71
2013-5-3,87.4,76.7,69.4,68.3,61.7,55.7,84,62,38,30.09,29.96,12,4,12,0.00
2013-5-4,99.0,78.6,71.2,63.4,58.7,48.4,73,53,21,30.07,29.95,13,4,13,0.00
2013-5-5,99.3,76.7,70.5,60.7,52.4,35.0,69,46,12,30.20,30.03,12,5,12,0.00
2013-5-6,84.7,74.6,65.1,56.7,49.6,43.5,56,42,28,30.33,30.18,10,4,11,0.11
2013-5-7,88.5,74.4,66.6,58.2,52.7,46.0,60,48,32,30.37,30.24,12,4,12,0.00
2013-5-8,100.4,76.9,67.6,58.0,52.0,44.6,59,43,20,30.45,30.31,10,3,10,0.00
2013-5-9,97.5,78.3,70.2,83.3,66.6,48.1,93,69,40,30.47,30.34,10,3,10,0.03
2013-5-10,87.6,80.6,74.1,74.8,68.0,61.2,86,68,43,30.42,30.34,12,4,12,0.00
2013-5-11,88.3,80.6,75.6,68.6,64.8,61.7,72,59,45,30.40,30.40,14,4,14,0.08
2013-5-12,89.4,80.3,75.4,66.6,64.0,56.6,71,59,41,30.40,30.40,13,3,13,0.31
2013-5-13,89.4,80.1,73.4,67.1,63.4,56.1,74,59,33,30.40,30.40,11,2,11,0.00
2013-5-14,85.3,78.9,74.1,52.2,48.6,43.3,45,35,23,30.40,30.40,6,3,10,0.00
2013-5-15,85.8,79.0,73.6,52.0,50.3,47.7,46,37,29,30.40,30.40,6,4,9,0.00
2013-5-16,86.5,82.2,77.0,56.5,52.6,49.3,48,37,28,30.40,30.40,6,4,9,0.00
2013-5-17,93.6,81.1,75.2,78.0,62.9,55.4,84,55,36,30.40,30.40,12,4,12,0.00
2013-5-18,91.2,81.2,76.3,66.5,62.7,59.3,66,54,38,30.40,30.40,12,4,12,0.00
2013-5-19,89.2,81.2,76.6,81.1,63.5,58.2,83,56,39,30.40,30.40,5,1,5,0.00
2013-5-20,81.0,77.0,71.4,72.8,67.5,62.3,89,73,57,30.40,30.40,0,0,0,0.00
2013-5-21,85.6,77.2,71.6,74.1,67.0,62.0,90,73,49,30.40,30.40,0,0,0,0.00
2013-5-22,100.4,79.3,71.8,71.3,65.8,59.6,83,65,32,30.40,30.40,0,0,0,0.00
2013-5-23,82.2,80.1,75.0,68.6,66.4,62.6,73,63,59,30.40,30.40,0,0,0,0.00
2013-5-24,82.2,82.2,82.2,66.9,66.9,66.9,60,60,60,30.40,30.40,0,0,0,0.00
2013-5-25,101.7,84.6,77.0,71.7,57.8,46.5,71,42,17,30.40,30.40,0,0,0,0.00
2013-5-26,88.3,81.1,77.0,80.2,61.3,53.9,92,54,34,30.40,30.40,0,0,0,0.00
2013-5-27,91.8,81.8,76.5,75.6,68.0,60.0,81,65,36,30.40,30.40,0,0,0,0.00
2013-5-28,87.8,80.5,77.2,65.5,63.2,60.9,66,56,45,30.40,30.40,0,0,0,0.00
2013-5-29,81.3,77.5,74.3,66.8,63.7,59.2,76,63,52,30.40,30.40,0,0,0,0.00
2013-5-30,85.1,79.8,76.6,67.2,62.9,59.6,65,56,48,30.40,30.40,0,0,0,0.00
2013-5-31,88.5,81.4,77.0,67.6,64.7,61.7,70,58,44,30.40,30.28,0,0,0,0.00
2013-6-1,88.0,80.0,76.5,68.8,66.7,63.6,73,64,47,30.34,30.22,0,0,0,0.00
2013-6-2,89.2,80.3,75.0,69.2,66.1,61.7,76,63,44,30.32,30.21,0,0,0,0.00
2013-6-3,88.0,80.8,75.6,68.5,65.3,62.1,73,60,47,30.31,30.18,0,0,0,0.00
2013-6-4,85.1,79.7,74.7,70.6,67.0,63.3,78,66,51,30.36,30.23,0,0,0,0.00
2013-6-5,85.8,81.4,78.8,69.5,67.3,64.2,70,63,54,30.30,30.16,0,0,0,0.00
2013-6-6,89.4,81.3,76.6,71.6,68.4,63.4,77,65,48,30.18,30.07,0,0,0,0.00
2013-6-7,85.8,78.0,74.1,70.6,67.8,65.7,81,71,54,30.29,30.12,0,0,0,0.00
2013-6-8,90.7,81.6,74.3,70.8,68.0,65.4,79,65,45,30.40,30.23,0,0,0,0.00
2013-6-9,95.7,82.7,79.3,69.4,65.9,63.6,65,57,39,30.42,30.32,0,0,0,0.00
2013-6-10,91.0,83.4,79.0,80.9,69.7,65.2,87,65,45,30.41,30.30,0,0,0,0.00
2013-6-11,91.0,82.2,79.0,77.8,73.8,65.1,89,78,44,30.41,30.28,0,0,0,0.00
2013-6-12,87.4,80.7,77.9,70.4,68.0,65.3,73,65,52,30.39,30.27,0,0,0,0.00
2013-6-13,90.9,81.5,76.3,69.8,66.3,58.6,76,61,39,30.39,30.19,0,0,0,0.00
2013-6-14,91.6,81.5,76.3,86.6,72.4,59.9,90,75,47,30.27,30.16,0,0,0,0.00
2013-6-15,91.0,82.8,76.3,80.3,75.5,72.1,87,79,66,30.35,30.20,0,0,0,0.00
2013-6-16,107.6,84.9,77.4,74.6,68.4,59.1,85,61,21,30.40,30.29,0,0,0,0.00
2013-6-17,105.4,86.4,83.1,66.3,63.6,58.4,56,47,23,30.40,30.32,0,0,0,0.00
2013-6-18,104.4,86.0,80.8,67.3,64.7,58.9,60,50,24,30.40,30.30,0,0,0,0.00
2013-6-19,89.2,84.5,80.8,85.6,72.1,63.0,89,68,43,30.37,30.28,0,0,0,0.00
2013-6-20,90.3,82.1,73.0,75.3,65.4,58.1,82,59,41,30.41,30.31,0,0,0,0.00
2013-6-21,102.6,85.4,80.1,64.8,61.4,51.2,57,46,20,30.45,30.31,0,0,0,0.00
2013-6-22,102.0,85.6,80.2,63.1,61.1,56.8,51,44,25,30.43,30.31,0,0,0,0.00
2013-6-23,100.9,84.8,79.7,88.9,65.5,58.1,81,53,35,30.45,30.33,0,0,0,0.00
2013-6-24,105.3,85.2,80.2,65.3,61.5,55.0,57,46,20,30.48,30.36,0,0,0,0.00
2013-6-25,91.2,84.6,80.6,75.6,63.6,59.5,76,50,38,30.44,30.30,0,0,0,0.00
2013-6-26,91.9,84.9,79.7,67.0,63.5,59.9,64,49,35,30.41,30.28,0,0,0,0.00
2013-6-27,89.8,84.4,80.8,65.2,63.3,59.9,56,50,39,30.37,30.24,0,0,0,0.00
2013-6-28,91.2,83.2,77.5,70.8,63.8,60.5,73,53,37,30.30,30.16,0,0,0,0.00
2013-6-29,90.3,82.5,78.4,72.3,64.8,59.6,71,56,42,30.22,30.13,0,0,0,0.00
2013-6-30,90.0,82.6,79.0,82.4,67.6,59.8,88,62,38,30.22,30.12,0,0,0,0.00
2013-7-1,89.6,83.3,79.9,73.2,68.6,64.2,80,63,46,30.31,30.22,0,0,0,0.00
2013-7-2,89.4,82.8,78.3,69.7,66.6,61.8,70,59,47,30.40,30.25,0,0,0,0.00
2013-7-3,90.9,83.2,79.3,68.7,65.2,61.7,63,55,42,30.44,30.32,0,0,0,0.00
2013-7-4,104.2,84.8,79.3,67.6,63.8,58.1,65,50,25,30.46,30.33,0,0,0,0.00
2013-7-5,99.1,83.2,78.3,70.2,64.7,61.9,69,54,32,30.44,30.33,0,0,0,0.00
2013-7-6,101.8,84.2,80.1,81.6,66.4,60.3,89,57,29,30.42,30.28,0,0,0,0.00
2013-7-7,106.2,85.3,80.6,65.4,62.4,58.1,54,47,22,30.41,30.30,0,0,0,0.00
2013-7-8,97.0,84.7,80.4,92.1,66.0,59.2,90,56,33,30.47,30.34,0,0,0,0.00
2013-7-9,88.7,82.1,77.2,79.7,68.7,58.3,92,68,38,30.45,30.33,0,0,0,0.00
2013-7-10,88.5,83.1,77.4,64.6,62.6,56.1,63,51,41,30.40,30.31,0,0,0,0.00
2013-7-11,91.2,83.8,79.3,66.0,62.8,56.2,60,50,38,30.33,30.23,0,0,0,0.00
2013-7-12,88.7,80.7,75.5,71.1,64.2,58.1,80,58,42,30.27,30.17,0,0,0,0.00
2013-7-13,84.4,76.9,72.7,69.1,66.2,61.6,85,70,53,30.30,30.18,0,0,0,0.00
2013-7-14,89.8,79.5,73.4,71.3,65.5,59.3,85,64,39,30.40,30.26,0,0,0,0.00
2013-7-15,90.1,81.2,74.8,65.7,62.2,58.1,68,54,35,30.40,30.30,0,0,0,0.00
2013-7-16,85.5,80.2,76.8,64.8,60.9,57.0,63,52,40,30.44,30.30,0,0,0,0.00
2013-7-17,81.0,77.0,73.8,67.5,64.7,59.4,75,66,50,30.42,30.31,0,0,0,0.00
2013-7-18,86.4,76.9,72.9,69.2,66.3,58.9,80,70,50,30.43,30.32,0,0,0,0.00
2013-7-19,90.0,82.0,74.7,70.5,67.4,64.2,80,63,44,30.45,30.33,0,0,0,0.00
2013-7-20,86.9,83.6,80.6,79.0,73.3,65.4,83,72,50,30.42,30.31,0,0,0,0.00
2013-7-21,88.9,84.7,81.7,79.0,75.2,65.3,82,74,47,30.42,30.33,0,0,0,0.00
2013-7-22,104.5,85.4,80.4,66.2,63.8,57.4,62,50,23,30.47,30.35,0,0,0,0.00
2013-7-23,101.8,84.3,78.8,67.4,64.4,59.6,65,52,26,30.41,30.26,0,0,0,0.00
2013-7-24,105.1,86.5,80.4,77.5,63.9,50.7,79,49,17,30.31,30.20,0,0,0,0.00
2013-7-25,100.2,85.3,78.1,66.1,62.2,56.4,65,47,25,30.34,30.18,0,0,0,0.00
2013-7-26,104.0,84.0,79.2,67.1,64.8,60.6,66,54,27,30.31,30.26,0,0,0,0.00
2013-7-27,83.8,79.4,77.2,73.2,68.6,65.5,78,70,61,30.26,30.26,0,0,0,0.00
2013-7-28,90.9,81.8,76.8,76.2,67.2,59.9,84,63,38,30.26,30.26,0,0,0,0.00
2013-7-29,95.2,84.3,78.4,75.1,68.9,62.5,85,62,39,30.26,30.26,0,0,0,0.00
2013-7-30,99.9,84.8,79.5,70.5,66.3,62.6,70,55,33,30.26,30.26,0,0,0,0.00
2013-7-31,104.5,86.3,81.5,66.5,63.2,57.4,57,47,23,30.26,30.26,0,0,0,0.00
2013-8-1,102.6,85.2,81.1,84.1,63.1,57.5,77,48,23,30.26,30.26,0,0,0,0.00
2013-8-2,89.8,82.7,78.8,67.9,64.0,56.9,67,54,37,30.26,30.26,0,0,0,0.00
2013-8-3,88.3,80.2,76.8,70.2,66.8,60.1,72,64,46,30.26,30.26,0,0,0,0.00
2013-8-4,92.8,83.2,77.9,69.2,66.5,62.3,74,59,39,30.26,30.26,0,0,0,0.00
2013-8-5,83.1,80.9,79.5,67.0,66.0,60.2,63,61,49,30.26,30.26,0,0,0,0.00
2013-8-6,92.8,83.6,77.4,68.9,65.3,60.6,72,55,37,30.26,30.26,0,0,0,0.00
2013-8-7,106.0,84.9,80.1,69.2,64.6,58.5,64,51,24,30.26,30.26,0,0,0,0.00
2013-8-8,106.9,86.5,81.7,65.6,62.9,52.1,56,46,19,30.26,30.26,0,0,0,0.00
2013-8-9,93.9,83.5,77.9,66.2,62.4,58.4,62,49,34,30.26,30.26,0,0,0,0.00
2013-8-10,100.8,85.9,81.1,66.6,63.7,60.3,59,48,29,30.26,30.26,0,0,0,0.00
2013-8-11,98.4,85.9,81.7,77.2,65.4,60.4,82,52,30,30.26,30.26,0,0,0,0.00
2013-8-12,105.8,86.3,80.6,64.9,61.8,56.4,53,45,21,30.26,30.26,0,0,0,0.00
2013-8-13,107.1,86.2,80.2,67.6,63.6,53.8,65,48,20,30.26,30.26,0,0,0,0.00
2013-8-14,104.2,86.0,80.8,67.6,63.1,55.8,60,47,21,30.26,30.26,0,0,0,0.00
2013-8-15,87.4,82.1,78.4,78.1,68.5,63.3,85,64,48,30.26,30.26,0,0,0,0.00
2013-8-16,102.7,85.5,79.3,69.1,66.8,62.1,70,55,29,30.26,30.26,0,0,0,0.00
2013-8-17,102.4,86.3,82.4,69.6,66.2,61.8,61,52,29,30.26,30.26,0,0,0,0.00
2013-8-18,99.0,85.5,80.8,69.3,65.1,62.4,60,51,33,30.26,30.26,0,0,0,0.00
2013-8-19,102.2,85.5,80.1,70.2,65.4,61.0,68,52,29,30.26,30.26,0,0,0,0.00
2013-8-20,92.5,85.4,81.5,77.3,65.4,60.8,85,53,37,30.26,30.26,0,0,0,0.00
2013-8-21,93.9,84.5,80.2,76.9,68.3,63.6,85,59,41,30.26,30.26,0,0,0,0.00
2013-8-22,94.8,85.8,81.0,69.3,65.9,62.7,65,52,37,30.26,30.26,0,0,0,0.00
2013-8-23,91.6,84.3,81.1,80.2,69.4,62.0,89,63,41,30.26,30.26,0,0,0,0.00
2013-8-24,91.8,84.9,80.6,80.6,69.2,61.1,89,63,37,30.26,30.26,0,0,0,0.00
2013-8-25,90.0,83.8,80.1,67.4,62.5,59.0,65,49,37,30.26,30.26,0,0,0,0.00
2013-8-26,85.8,82.5,80.1,62.6,60.6,59.8,55,48,44,30.26,30.26,0,0,0,0.00
2013-8-27,86.0,80.6,77.7,73.0,64.1,54.7,81,59,37,30.26,30.26,0,0,0,0.00
2013-8-28,89.8,82.0,77.2,72.1,63.2,58.1,80,54,37,30.26,30.26,0,0,0,0.00
2013-8-29,91.6,84.0,77.5,65.1,62.9,59.0,65,50,35,30.26,30.26,0,0,0,0.00
2013-8-30,89.1,83.5,78.6,80.6,63.9,56.3,79,53,34,30.26,30.26,0,0,0,0.00
2013-8-31,88.7,81.1,76.8,67.3,62.7,55.5,65,54,41,30.26,30.26,0,0,0,0.00
2013-9-1,88.2,82.5,76.6,67.0,64.5,61.2,69,55,42,30.26,30.26,0,0,0,0.00
2013-9-2,90.0,83.0,77.5,65.0,63.8,59.6,65,53,40,30.26,30.26,0,0,0,0.00
2013-9-3,89.4,82.0,75.7,67.7,64.0,56.4,68,55,37,30.26,30.26,0,0,0,0.00
2013-9-4,90.9,84.2,80.2,66.1,64.0,61.7,59,51,39,30.26,30.26,0,0,0,0.00
2013-9-5,91.0,84.5,80.1,71.3,63.9,60.9,72,51,39,30.26,30.26,0,0,0,0.00
2013-9-6,91.8,85.7,81.3,65.0,61.9,57.7,57,45,32,30.26,30.26,0,0,0,0.00
2013-9-7,90.7,83.3,78.8,64.6,61.5,58.8,57,48,36,30.26,30.26,0,0,0,0.00
2013-9-8,89.1,81.7,76.3,65.3,62.0,57.5,65,52,36,30.26,30.26,0,0,0,0.00
2013-9-9,90.9,83.5,77.9,66.1,62.1,58.7,65,49,36,30.26,30.26,0,0,0,0.00
2013-9-10,89.2,82.8,79.5,75.9,64.9,58.3,83,57,38,30.26,30.26,0,0,0,0.00
2013-9-11,88.0,82.7,79.2,76.2,74.5,71.2,85,77,64,30.26,30.26,0,0,0,0.00
2013-9-12,86.4,83.3,79.3,74.1,68.8,61.7,73,63,47,30.26,30.26,6,0,1,0.00
2013-9-13,91.4,83.7,77.0,67.2,62.5,54.4,68,51,29,30.26,30.26,0,0,0,0.00
2013-9-14,91.6,86.4,79.3,65.9,61.4,58.3,60,44,36,30.26,30.26,0,0,0,0.00
2013-9-15,83.5,81.8,79.5,68.3,64.5,61.1,65,56,47,30.26,30.26,0,0,0,0.00
2013-9-16,84.4,82.7,81.0,66.9,63.0,57.8,62,52,42,30.26,30.26,0,0,0,0.00
2013-9-17,84.7,80.2,75.6,68.9,63.8,60.4,74,58,50,30.26,30.26,0,0,0,0.00
2013-9-18,88.3,81.2,76.1,68.0,64.0,60.7,73,57,43,30.26,30.26,0,0,0,0.00
2013-9-19,90.3,81.8,76.3,66.6,62.7,59.8,68,53,38,30.26,30.26,0,0,0,0.00
2013-9-20,87.6,81.7,76.8,76.1,62.4,54.4,82,53,34,30.26,30.26,0,0,0,0.00
2013-9-21,89.4,82.2,76.5,64.3,61.5,58.3,65,50,38,30.26,30.26,0,0,0,0.00
2013-9-22,81.9,81.9,81.9,61.4,61.4,61.4,50,50,50,30.26,30.26,0,0,0,0.00
2013-9-23,82.2,81.7,80.2,68.6,63.1,61.4,67,54,50,30.26,30.26,0,0,0,0.00
2013-9-24,90.5,83.1,78.3,70.9,64.8,58.1,70,55,40,30.26,30.26,0,0,0,0.00
2013-9-25,87.8,81.1,77.0,68.2,64.0,58.6,66,56,45,30.26,30.26,0,0,0,0.00
2013-9-26,89.4,82.0,77.7,70.3,65.7,61.5,70,59,42,30.26,30.26,0,0,0,0.00
2013-9-27,88.5,81.5,76.6,75.1,63.2,53.4,75,55,31,30.26,30.26,0,0,0,0.00
2013-9-28,89.1,81.7,76.3,65.1,60.8,56.3,65,50,37,30.26,30.26,0,0,0,0.00
2013-9-29,88.7,81.2,75.6,66.7,59.4,52.0,70,49,31,30.26,30.26,0,0,0,0.00
2013-9-30,89.1,82.9,77.5,60.8,57.8,54.6,55,43,34,30.26,30.26,0,0,0,0.00
2013-10-1,89.4,83.0,79.7,81.3,65.1,56.2,90,58,34,30.26,30.26,0,0,0,0.00
2013-10-2,83.1,80.6,78.3,74.2,63.9,59.5,79,57,48,30.26,30.26,0,0,0,0.00
2013-10-3,87.4,81.3,77.2,66.1,61.9,58.5,67,52,39,30.26,30.26,0,0,0,0.00
2013-10-4,88.7,82.2,78.3,60.9,58.2,54.6,55,45,35,30.26,30.26,0,0,0,0.00
2013-10-5,89.1,82.1,75.7,61.6,58.7,55.0,58,46,34,30.26,30.26,0,0,0,0.00
2013-10-6,90.5,82.9,76.8,63.4,58.8,54.5,61,45,32,30.26,30.26,0,0,0,0.00
2013-10-7,91.2,80.7,75.0,74.9,63.6,53.6,85,59,31,30.26,30.26,0,0,0,0.00
2013-10-8,92.5,81.6,76.6,79.0,69.9,58.5,88,70,37,30.26,30.26,0,0,0,0.00
2013-10-9,86.0,80.0,74.7,63.4,61.4,58.6,63,53,43,30.26,30.26,0,0,0,0.00
2013-10-10,89.6,81.0,74.8,64.6,59.3,53.8,68,49,33,30.26,30.26,0,0,0,0.00
2013-10-11,90.3,80.9,74.7,59.7,54.8,51.1,57,41,27,30.26,30.26,0,0,0,0.00
2013-10-12,87.1,79.3,72.7,79.0,61.3,51.5,83,57,31,30.26,30.26,0,0,0,0.00
2013-10-13,88.7,80.5,74.8,72.4,62.0,45.2,80,57,23,30.26,30.26,0,0,0,0.00
2013-10-14,88.6,78.4,73.9,58.3,54.8,47.9,56,45,25,30.26,30.26,0,0,0,0.00
2013-10-15,90.0,80.5,73.9,60.7,56.4,51.6,62,45,28,30.26,30.26,0,0,0,0.00
2013-10-16,87.2,80.3,75.0,61.4,56.6,53.3,57,45,33,30.26,30.26,0,0,0,0.00
2013-10-17,91.2,81.2,75.0,61.0,58.1,55.0,60,46,31,30.26,30.26,0,0,0,0.00
2013-10-18,91.6,81.9,75.4,62.1,58.9,56.7,60,46,31,30.26,30.26,0,0,0,0.00
2013-10-19,88.9,82.4,77.9,81.3,65.8,57.4,84,59,36,30.26,30.26,0,0,0,0.00
2013-10-20,89.8,81.4,77.5,73.1,68.1,61.8,78,65,43,30.26,30.26,0,0,0,0.00
2013-10-21,91.5,82.4,77.2,71.3,65.9,59.9,78,59,37,30.26,30.26,0,0,0,0.00
2013-10-22,94.6,82.7,77.1,67.2,64.4,60.7,67,55,35,30.26,30.26,0,0,0,0.00
2013-10-23,87.1,80.8,77.7,68.1,63.6,58.3,71,56,40,30.26,30.26,0,0,0,0.00
2013-10-24,81.9,77.7,74.8,59.1,54.1,49.5,53,44,37,30.26,30.26,0,0,0,0.00
2013-10-25,86.4,78.3,73.0,56.4,50.5,45.7,54,39,26,30.26,30.26,0,0,0,0.00
2013-10-26,79.7,77.0,75.2,69.4,59.9,44.6,77,59,32,30.26,30.26,0,0,0,0.00
2013-10-27,77.5,77.2,76.8,69.4,67.5,47.9,77,73,36,30.26,30.26,0,0,0,0.00
2013-10-28,94.4,79.6,74.8,53.6,49.7,37.9,43,36,14,30.26,30.26,0,0,0,0.00
2013-10-29,91.6,80.2,75.6,56.5,52.5,47.4,45,39,22,30.26,30.26,0,0,0,0.00
2013-10-30,88.0,79.8,76.5,84.4,60.0,50.9,91,55,31,30.26,30.26,0,0,0,0.00
2013-10-31,89.6,81.8,76.5,76.7,67.2,58.9,84,63,42,30.26,30.26,0,0,0,0.00
2013-11-1,95.9,82.3,78.1,63.4,60.3,57.2,56,48,31,30.26,30.26,0,0,0,0.00
2013-11-2,95.4,80.7,74.1,64.2,57.7,45.0,66,48,20,30.26,30.26,0,0,0,0.00
2013-11-3,83.7,76.4,70.5,58.1,49.7,44.8,54,40,28,30.26,30.26,0,0,0,0.00
2013-11-4,83.1,78.4,75.6,55.9,49.8,38.3,47,37,23,30.26,30.26,0,0,0,0.00
2013-11-5,83.8,79.1,76.6,60.1,55.5,52.0,54,45,36,30.26,30.26,0,0,0,0.00
2013-11-6,93.9,80.7,77.5,58.9,56.9,51.1,52,45,25,30.26,30.26,0,0,0,0.00
2013-11-7,89.1,78.8,72.9,61.1,58.0,54.3,62,50,32,30.26,30.26,0,0,0,0.00
2013-11-8,88.7,77.5,72.7,65.1,60.7,55.6,73,57,37,30.26,30.26,0,0,0,0.00
2013-11-9,88.3,78.5,75.7,71.6,63.1,57.5,83,60,39,30.26,30.26,0,0,0,0.00
2013-11-10,88.0,80.5,76.6,63.2,58.4,54.4,62,48,34,30.26,30.26,0,0,0,0.00
2013-11-11,88.3,80.3,77.2,59.4,56.0,52.1,53,44,31,30.26,30.26,0,0,0,0.00
2013-11-12,91.2,79.3,73.2,60.8,56.2,51.4,59,46,28,30.26,30.26,0,0,0,0.00
2013-11-13,79.3,73.4,70.3,61.2,53.9,47.0,72,51,35,30.26,30.26,0,0,0,0.00
2013-11-14,80.2,74.3,70.3,68.1,48.7,43.8,84,42,30,30.26,30.26,0,0,0,0.00
2013-11-15,83.5,77.0,73.0,68.1,57.6,51.5,84,53,36,30.26,30.26,0,0,0,0.00
2013-11-16,81.3,78.0,75.2,62.9,57.6,53.4,64,50,41,30.26,30.26,0,0,0,0.00
2013-11-17,88.5,79.7,76.3,60.3,58.3,55.1,56,48,35,30.26,30.26,0,0,0,0.00
2013-11-18,92.8,79.5,73.8,62.3,59.0,53.7,64,50,28,30.26,30.26,0,0,0,0.00
2013-11-19,84.2,77.5,74.1,64.8,62.0,56.1,69,59,39,30.26,30.26,0,0,0,0.00
2013-11-20,81.5,76.0,72.3,66.1,63.9,57.7,74,66,53,30.26,30.26,0,0,0,0.00
2013-11-21,91.4,77.1,72.3,67.2,63.8,58.5,78,65,38,30.26,30.26,0,0,0,0.00
2013-11-22,82.8,77.9,74.1,64.8,61.0,57.8,72,57,45,30.42,30.22,0,0,0,0.00
2013-11-23,85.3,78.0,73.8,80.4,65.9,58.8,87,68,47,30.37,30.25,0,0,0,0.00
2013-11-24,85.3,75.5,70.7,68.3,61.5,49.4,85,64,31,30.41,30.24,0,0,0,0.00
2013-11-25,79.9,75.3,73.2,59.0,53.9,49.5,59,48,40,30.49,30.32,0,0,0,0.00
2013-11-26,83.5,78.1,73.8,66.4,62.8,58.4,67,59,49,30.32,30.11,0,0,0,0.00
2013-11-27,87.6,73.7,62.2,67.0,53.8,29.7,77,54,14,30.40,30.06,0,0,0,0.00
2013-11-28,81.0,64.5,53.1,62.5,45.0,37.0,86,51,25,30.52,30.36,0,0,0,0.00
2013-11-29,77.5,71.1,63.9,51.9,47.8,42.0,59,45,31,30.54,30.43,0,0,0,0.00
2013-11-30,79.5,71.8,64.4,62.5,53.5,49.8,73,53,44,30.49,30.36,0,0,0,0.00
2013-12-1,76.3,69.9,64.8,70.3,59.6,51.2,92,71,48,30.37,30.22,0,0,0,0.00
2013-12-2,80.2,69.4,64.9,71.5,60.2,43.3,93,76,30,30.22,30.09,0,0,0,0.00
2013-12-3,90.0,72.3,64.2,56.4,52.6,44.8,66,52,22,30.27,30.14,0,0,0,0.00
2013-12-4,70.9,69.7,67.5,58.4,55.8,54.8,66,61,59,30.32,30.24,0,0,0,0.00
2013-12-5,70.9,70.9,70.9,55.8,55.8,55.8,59,59,59,30.26,30.26,0,0,0,0.00
2013-12-6,70.9,70.9,70.9,55.8,55.8,55.8,59,59,59,30.26,30.26,0,0,0,0.00
2013-12-7,70.9,70.9,70.9,55.8,55.8,55.8,59,59,59,30.26,30.26,0,0,0,0.00
2013-12-8,70.9,70.9,70.9,55.8,55.8,55.8,59,59,59,30.26,30.26,0,0,0,0.00
2013-12-9,70.9,70.9,70.9,55.8,55.8,55.8,59,59,59,30.26,30.26,0,0,0,0.00
2013-12-10,70.9,70.9,70.9,55.8,55.8,55.8,59,59,59,30.26,30.26,0,0,0,0.00
2013-12-11,70.9,70.9,70.9,55.8,55.8,55.8,59,59,59,30.26,30.26,0,0,0,0.00
2013-12-12,70.9,70.9,70.9,55.8,55.8,55.8,59,59,59,30.26,30.26,0,0,0,0.00
2013-12-13,70.9,70.9,70.9,55.8,55.8,55.8,59,59,59,30.26,30.26,0,0,0,0.00
2013-12-15,70.9,70.9,70.9,55.8,55.8,55.8,59,59,59,30.26,30.26,0,0,0,0.00
2013-12-16,70.9,70.9,70.9,55.8,55.8,55.8,59,59,59,30.26,30.26,0,0,0,0.00
2013-12-17,70.9,70.9,70.9,55.8,55.8,55.8,59,59,59,30.26,30.26,0,0,0,0.00
2013-12-18,70.9,70.9,70.9,55.8,55.8,55.8,59,59,59,30.26,30.26,0,0,0,0.00